{"data":{"norad_id":65632,"epoch":"2026-05-24T21:23:59.783424Z","epoch_age_seconds":87430,"freshness":"FRESH","line1":"1 65632U 25210L   26144.89166416  .00020685  00000+0  70867-3 0  9991","line2":"2 65632  53.1581 313.4337 0001020  72.8068 287.3045 15.30195445 39395","mean_motion":15.30195445,"eccentricity":0.000102,"inclination_deg":53.1581,"raan_deg":313.4337,"arg_perigee_deg":72.8068,"mean_anomaly_deg":287.3045,"bstar":0.00070867,"rev_number":3939,"period_min":94.10562583396,"perigee_km":474.52962656369,"apogee_km":475.92771316034,"semimajor_km":6853.365669862,"source":"CELESTRAK","updated_at":"2026-05-25T13:38:20.882703Z"}}